TimePDT,TemperatureF,Dew PointF,Humidity,Sea Level PressureIn,VisibilityMPH,Wind Direction,Wind SpeedMPH,Gust SpeedMPH,PrecipitationIn,Events,Conditions,WindDirDegrees,DateUTC
12:53 AM,14.0,5.0,67,30.35,10.0,Calm,Calm,-,N/A,,Clear,0,2013-04-17 07:53:00
1:53 AM,12.9,3.9,67,30.37,10.0,Variable,6.9,-,N/A,,Clear,0,2013-04-17 08:53:00
2:53 AM,14.0,3.9,64,30.32,10.0,ESE,6.9,-,N/A,,Clear,120,2013-04-17 09:53:00
3:53 AM,14.0,3.0,62,30.35,10.0,Variable,6.9,-,N/A,,Clear,0,2013-04-17 10:53:00
4:53 AM,12.9,3.0,65,30.37,10.0,Variable,3.5,-,N/A,,Clear,0,2013-04-17 11:53:00
5:53 AM,14.0,3.9,64,30.37,10.0,Variable,6.9,-,N/A,,Clear,0,2013-04-17 12:53:00
7:53 AM,18.0,5.0,57,30.41,10.0,Calm,Calm,-,N/A,,Clear,0,2013-04-17 14:53:00
8:53 AM,21.0,7.0,55,30.41,10.0,Calm,Calm,-,N/A,,Clear,0,2013-04-17 15:53:00
9:53 AM,23.0,5.0,46,30.41,10.0,Calm,Calm,-,N/A,,Clear,0,2013-04-17 16:53:00
10:53 AM,28.0,7.0,41,30.40,10.0,Calm,Calm,-,N/A,,Clear,0,2013-04-17 17:53:00
11:53 AM,28.0,7.0,41,30.38,10.0,Variable,3.5,-,N/A,,Clear,0,2013-04-17 18:53:00
12:53 PM,30.9,8.1,38,30.37,10.0,Variable,4.6,-,N/A,,Partly Cloudy,0,2013-04-17 19:53:00
1:53 PM,33.1,9.0,37,30.36,10.0,NW,8.1,-,N/A,,Scattered Clouds,320,2013-04-17 20:53:00
2:53 PM,35.1,12.0,39,30.34,10.0,NNW,6.9,-,N/A,,Partly Cloudy,330,2013-04-17 21:53:00
3:53 PM,36.0,12.9,39,30.34,10.0,Variable,5.8,-,N/A,,Overcast,0,2013-04-17 22:53:00
4:53 PM,34.0,12.0,40,30.35,10.0,Variable,5.8,-,N/A,,Mostly Cloudy,0,2013-04-17 23:53:00
5:53 PM,32.0,10.0,40,30.36,10.0,Variable,6.9,17.3,N/A,,Mostly Cloudy,0,2013-04-18 00:53:00
6:53 PM,28.0,10.9,49,30.37,10.0,NW,9.2,-,N/A,,Clear,310,2013-04-18 01:53:00
7:53 PM,27.0,9.0,47,30.36,10.0,Variable,6.9,-,N/A,,Partly Cloudy,0,2013-04-18 02:53:00
8:53 PM,25.0,9.0,51,30.37,10.0,NW,4.6,-,N/A,,Clear,320,2013-04-18 03:53:00
9:53 PM,25.0,9.0,51,30.35,10.0,Variable,5.8,-,N/A,,Clear,0,2013-04-18 04:53:00
10:53 PM,24.1,10.9,57,30.33,10.0,NW,6.9,-,N/A,,Clear,310,2013-04-18 05:53:00
11:53 PM,24.1,10.9,57,30.32,10.0,NW,5.8,-,N/A,,Clear,310,2013-04-18 06:53:00